(1685) Toro
ephemeris date magn radius delta ra dec elong phase
Today9 Jun 202617.01.935 AU1.105 AU13h36m-21°45'131.7°23.1°
(1685) Toro - 2026-06-09
astro.vanbuitenen.nl


 
-1 year
-1 month
-1 day
Now
+1 day
+1 month
+1 year

The interactive orbit chart above shows the body's path through the solar system and its position at the given date. Green and blue lines are shown perpendicular to the ecliptic plane: Green if the path is above the ecliptic plane, blue if it is below. (Left-click and drag to rotate the view; Right-click and drag to move the view; Use scroll wheel to zoom in our out.)

The orbital elements of Toro are:

            e (Eccentricity)                : 0.4359922
            a (Semimajor axis)              : 1.3678594
            i (Inclination)                 : 9.38177
            Ω (Longitude of ascending node) : 274.20784
            ω (Argument of perihelion)      : 127.27004
            M (Mean anomaly)                : 205.91450
            Epoch                           : 2026 Jun 09

            L (Longitude of perihelion)     : 221.85036
            B (Latitude of perihelion)      : 7.45361
            P (Orbital period in years)     : 1.60            
        

The light curve chart below shows the estimated development of the minor planet's magnitude.


The all-sky chart below shows the path of the minor planet over the same period as the light curve. The current position is marked yellow.





The following chart shows the path of the minor planet in the next few days. The field of view is optimized for (~10x50) binoculars and finderscopes.




Ephemerides:
Date       Time       RA (2000)    DEC (2000)    delta   radius  elong  phase   PA    magn
2026-06-09 00:00 UT   13 36 57.3   -21 45 25     1.105    1.935  131.7   23.1   102   17.0 
2026-06-09 10:41 UT   13 36 44.1   -21 40 10     1.108    1.934  131.2   23.3   102   17.0 
2026-06-10 00:00 UT   13 36 28.5   -21 33 42     1.112    1.933  130.6   23.5   102   17.0 
2026-06-11 00:00 UT   13 36 02.6   -21 22 16     1.120    1.932  129.5   23.9   103   17.1 
2026-06-12 00:00 UT   13 35 39.5   -21 11 05     1.127    1.930  128.4   24.3   103   17.1 
2026-06-13 00:00 UT   13 35 19.2   -21 00 12     1.135    1.929  127.4   24.7   104   17.1 
2026-06-14 00:00 UT   13 35 01.6   -20 49 36     1.143    1.927  126.4   25.1   104   17.1 
2026-06-15 00:00 UT   13 34 46.8   -20 39 17     1.151    1.926  125.3   25.5   105   17.2 
2026-06-16 00:00 UT   13 34 34.7   -20 29 15     1.159    1.924  124.3   25.9   105   17.2 
2026-06-17 00:00 UT   13 34 25.3   -20 19 31     1.167    1.922  123.3   26.2   105   17.2 
2026-06-18 00:00 UT   13 34 18.5   -20 10 04     1.175    1.921  122.3   26.6   106   17.2 
2026-06-19 00:00 UT   13 34 14.3   -20 00 55     1.183    1.919  121.3   26.9   106   17.3 
2026-06-20 00:00 UT   13 34 12.6   -19 52 04     1.192    1.917  120.3   27.2   106   17.3 
2026-06-21 00:00 UT   13 34 13.4   -19 43 31     1.200    1.915  119.3   27.6   106   17.3 
2026-06-22 00:00 UT   13 34 16.7   -19 35 15     1.209    1.913  118.4   27.9   107   17.3 
2026-06-23 00:00 UT   13 34 22.4   -19 27 16     1.217    1.912  117.4   28.2   107   17.3 
2026-06-24 00:00 UT   13 34 30.5   -19 19 35     1.226    1.910  116.5   28.5   107   17.4 
2026-06-25 00:00 UT   13 34 40.9   -19 12 11     1.235    1.908  115.5   28.7   107   17.4 
2026-06-26 00:00 UT   13 34 53.6   -19 05 05     1.244    1.906  114.6   29.0   108   17.4 
2026-06-27 00:00 UT   13 35 08.5   -18 58 15     1.252    1.904  113.7   29.3   108   17.4 
2026-06-28 00:00 UT   13 35 25.7   -18 51 42     1.261    1.902  112.8   29.5   108   17.4 
2026-06-29 00:00 UT   13 35 45.0   -18 45 26     1.270    1.900  111.9   29.8   108   17.5 
2026-06-30 00:00 UT   13 36 06.4   -18 39 26     1.279    1.897  111.0   30.0   108   17.5 
2026-07-01 00:00 UT   13 36 29.9   -18 33 42     1.288    1.895  110.1   30.2   109   17.5 
2026-07-02 00:00 UT   13 36 55.4   -18 28 14     1.297    1.893  109.2   30.5   109   17.5 
2026-07-03 00:00 UT   13 37 22.9   -18 23 02     1.306    1.891  108.3   30.7   109   17.5 
2026-07-04 00:00 UT   13 37 52.4   -18 18 06     1.315    1.889  107.5   30.9   109   17.6 
2026-07-05 00:00 UT   13 38 23.9   -18 13 25     1.324    1.886  106.6   31.1   109   17.6 
2026-07-06 00:00 UT   13 38 57.2   -18 08 59     1.334    1.884  105.8   31.3   109   17.6 
2026-07-07 00:00 UT   13 39 32.4   -18 04 48     1.343    1.882  105.0   31.5   109   17.6 
2026-07-08 00:00 UT   13 40 09.5   -18 00 52     1.352    1.879  104.1   31.6   109   17.6 
2026-07-09 00:00 UT   13 40 48.3   -17 57 11     1.361    1.877  103.3   31.8   110   17.6 


    Terminology:
            
    delta:  distance between minor planet and earth in AU
    radius: distance between minor planet and sun in AU
    magn:   magnitude (brightness) estimate    
    ra:     right ascension in hours (24h = 360deg)
    dec:    declination in degrees
    elong:  elongation in degrees (angle sun-earth-minor planet)    
    phase:  phase angle in degrees (angle sun-minor planet-earth)        
    AU:     Astronomical Unit (mean distance between earth and sun: 149597870.7 km
    

Orbital elements provided by the MPC (Minor Planet Center).
Calculations by a modified version of AAPlus, a C# implementation of the AA+ project by PJ Naughter from the algorithms presented in the book "Astronomical Algorithms" by Jean Meeus.
NGC2000 dso catalog and star labels from VizieR as provided by the Strasbourg astronomical Data Center.
Tycho2 catalog from the ESO archive.